Time,TemperatureF,DewpointF,PressureIn,WindDirection,WindDirectionDegrees,WindSpeedMPH,WindSpeedGustMPH,Humidity,HourlyPrecipIn,Conditions,Clouds,dailyrainin,SoftwareType,DateUTC
2013-04-18 00:02:00,23.0,15.0,-100.00,WSW,245,6.0,8.0,71,-99.99,,,-99.99,,2013-04-18 06:02:00,
2013-04-18 00:12:00,23.0,15.0,-100.00,SW,235,5.0,7.0,71,-99.99,,,-99.99,,2013-04-18 06:12:00,
2013-04-18 00:22:00,23.0,15.0,-100.00,SW,235,5.0,6.0,72,-99.99,,,-99.99,,2013-04-18 06:22:00,
2013-04-18 00:32:00,22.0,14.0,-100.00,WSW,245,6.0,7.0,70,-99.99,,,-99.99,,2013-04-18 06:32:00,
2013-04-18 00:42:00,22.0,13.0,-100.00,WSW,250,7.0,9.0,68,-99.99,,,-99.99,,2013-04-18 06:42:00,
2013-04-18 00:52:00,22.0,13.0,-100.00,WSW,255,7.0,9.0,67,-99.99,,,-99.99,,2013-04-18 06:52:00,
2013-04-18 01:02:00,22.0,13.0,-100.00,WSW,245,6.0,9.0,68,-99.99,,,-99.99,,2013-04-18 07:02:00,
2013-04-18 01:12:00,22.0,13.0,-100.00,WSW,250,6.0,7.0,68,-99.99,,,-99.99,,2013-04-18 07:12:00,
2013-04-18 01:22:00,22.0,13.0,-100.00,WSW,250,6.0,8.0,67,-99.99,,,-99.99,,2013-04-18 07:22:00,
2013-04-18 01:32:00,21.0,12.0,-100.00,WSW,245,6.0,8.0,66,-99.99,,,-99.99,,2013-04-18 07:32:00,
2013-04-18 01:42:00,21.0,12.0,-100.00,WSW,245,6.0,8.0,67,-99.99,,,-99.99,,2013-04-18 07:42:00,
2013-04-18 01:52:00,21.0,12.0,-100.00,WSW,240,6.0,8.0,67,-99.99,,,-99.99,,2013-04-18 07:52:00,
2013-04-18 02:02:00,17.0,9.0,-100.00,WSW,250,6.0,9.0,68,-99.99,,,-99.99,,2013-04-18 08:02:00,
2013-04-18 02:12:00,19.0,10.0,-100.00,WSW,250,6.0,9.0,68,-99.99,,,-99.99,,2013-04-18 08:12:00,
2013-04-18 02:22:00,19.0,10.0,-100.00,WSW,245,6.0,7.0,68,-99.99,,,-99.99,,2013-04-18 08:22:00,
2013-04-18 02:32:00,18.0,10.0,-100.00,WSW,245,4.0,7.0,68,-99.99,,,-99.99,,2013-04-18 08:32:00,
2013-04-18 02:42:00,19.0,11.0,-100.00,WSW,250,5.0,7.0,69,-99.99,,,-99.99,,2013-04-18 08:42:00,
2013-04-18 02:52:00,19.0,11.0,-100.00,WSW,245,4.0,7.0,68,-99.99,,,-99.99,,2013-04-18 08:52:00,
2013-04-18 03:02:00,19.0,11.0,-100.00,WSW,255,4.0,6.0,68,-99.99,,,-99.99,,2013-04-18 09:02:00,
2013-04-18 03:12:00,19.0,11.0,-100.00,West,260,5.0,6.0,68,-99.99,,,-99.99,,2013-04-18 09:12:00,
2013-04-18 03:22:00,19.0,11.0,-100.00,WSW,255,5.0,7.0,68,-99.99,,,-99.99,,2013-04-18 09:22:00,
2013-04-18 03:32:00,19.0,10.0,-100.00,WSW,255,6.0,7.0,67,-99.99,,,-99.99,,2013-04-18 09:32:00,
2013-04-18 03:42:00,19.0,10.0,-100.00,WSW,250,6.0,7.0,66,-99.99,,,-99.99,,2013-04-18 09:42:00,
2013-04-18 03:53:00,19.0,10.0,-100.00,WSW,250,6.0,7.0,66,-99.99,,,-99.99,,2013-04-18 09:53:00,
2013-04-18 04:03:00,19.0,10.0,-100.00,WSW,250,4.0,6.0,66,-99.99,,,-99.99,,2013-04-18 10:03:00,
2013-04-18 04:12:00,19.0,10.0,-100.00,WSW,250,4.0,6.0,66,-99.99,,,-99.99,,2013-04-18 10:12:00,
2013-04-18 04:23:00,19.0,9.0,-100.00,WSW,245,6.0,7.0,65,-99.99,,,-99.99,,2013-04-18 10:23:00,
2013-04-18 04:32:00,19.0,9.0,-100.00,WSW,245,5.0,7.0,65,-99.99,,,-99.99,,2013-04-18 10:32:00,
2013-04-18 04:42:00,18.0,8.0,-100.00,WSW,245,4.0,6.0,64,-99.99,,,-99.99,,2013-04-18 10:42:00,
2013-04-18 04:52:00,18.0,7.0,-100.00,SW,235,4.0,6.0,62,-99.99,,,-99.99,,2013-04-18 10:52:00,
2013-04-18 05:02:00,17.0,8.0,-100.00,WSW,240,4.0,6.0,65,-99.99,,,-99.99,,2013-04-18 11:02:00,
2013-04-18 05:12:00,17.0,8.0,-100.00,WSW,240,4.0,6.0,66,-99.99,,,-99.99,,2013-04-18 11:12:00,
2013-04-18 05:22:00,16.0,7.0,-100.00,WSW,245,4.0,5.0,67,-99.99,,,-99.99,,2013-04-18 11:22:00,
2013-04-18 05:32:00,10.0,2.0,-100.00,WSW,240,4.0,4.0,67,-99.99,,,-99.99,,2013-04-18 11:32:00,
2013-04-18 05:42:00,13.0,4.0,-100.00,SW,230,3.0,4.0,69,-99.99,,,-99.99,,2013-04-18 11:42:00,
2013-04-18 05:52:00,13.0,5.0,-100.00,SW,225,3.0,3.0,70,-99.99,,,-99.99,,2013-04-18 11:52:00,
2013-04-18 06:02:00,12.0,4.0,-100.00,SW,220,3.0,3.0,71,-99.99,,,-99.99,,2013-04-18 12:02:00,
2013-04-18 06:12:00,11.0,4.0,-100.00,SW,215,4.0,4.0,71,-99.99,,,-99.99,,2013-04-18 12:12:00,
2013-04-18 06:22:00,11.0,4.0,-100.00,SW,220,4.0,4.0,72,-99.99,,,-99.99,,2013-04-18 12:22:00,
2013-04-18 06:32:00,11.0,5.0,-100.00,SW,220,4.0,4.0,73,-99.99,,,-99.99,,2013-04-18 12:32:00,
2013-04-18 06:42:00,11.0,4.0,-100.00,SW,220,4.0,4.0,72,-99.99,,,-99.99,,2013-04-18 12:42:00,
2013-04-18 06:52:00,12.0,5.0,-100.00,SW,220,4.0,4.0,71,-99.99,,,-99.99,,2013-04-18 12:52:00,
2013-04-18 07:02:00,13.0,5.0,-100.00,SW,225,4.0,4.0,69,-99.99,,,-99.99,,2013-04-18 13:02:00,
2013-04-18 07:12:00,13.0,4.0,-100.00,WSW,240,3.0,4.0,65,-99.99,,,-99.99,,2013-04-18 13:12:00,
2013-04-18 07:22:00,14.0,3.0,-100.00,WSW,240,4.0,5.0,61,-99.99,,,-99.99,,2013-04-18 13:22:00,
2013-04-18 07:32:00,15.0,3.0,-100.00,SW,230,4.0,6.0,60,-99.99,,,-99.99,,2013-04-18 13:32:00,
2013-04-18 07:42:00,15.0,3.0,-100.00,SW,230,3.0,4.0,58,-99.99,,,-99.99,,2013-04-18 13:42:00,
2013-04-18 07:52:00,15.0,3.0,-100.00,SW,235,4.0,4.0,57,-99.99,,,-99.99,,2013-04-18 13:52:00,
2013-04-18 08:02:00,16.0,3.0,-100.00,WSW,240,3.0,4.0,57,-99.99,,,-99.99,,2013-04-18 14:02:00,
2013-04-18 08:12:00,17.0,4.0,-100.00,SW,225,3.0,4.0,56,-99.99,,,-99.99,,2013-04-18 14:12:00,
2013-04-18 08:22:00,19.0,5.0,-100.00,SW,230,3.0,4.0,55,-99.99,,,-99.99,,2013-04-18 14:22:00,
2013-04-18 08:32:00,19.0,5.0,-100.00,SW,230,4.0,4.0,54,-99.99,,,-99.99,,2013-04-18 14:32:00,
2013-04-18 08:42:00,20.0,6.0,-100.00,SW,235,4.0,5.0,53,-99.99,,,-99.99,,2013-04-18 14:42:00,
2013-04-18 08:52:00,20.0,5.0,-100.00,SW,235,4.0,6.0,51,-99.99,,,-99.99,,2013-04-18 14:52:00,
2013-04-18 09:02:00,21.0,5.0,-100.00,SW,235,4.0,4.0,48,-99.99,,,-99.99,,2013-04-18 15:02:00,
2013-04-18 09:12:00,23.0,7.0,-100.00,SW,225,3.0,4.0,49,-99.99,,,-99.99,,2013-04-18 15:12:00,
2013-04-18 09:22:00,24.0,7.0,-100.00,SW,220,4.0,5.0,47,-99.99,,,-99.99,,2013-04-18 15:22:00,
2013-04-18 09:33:00,25.0,7.0,-100.00,SW,220,4.0,6.0,46,-99.99,,,-99.99,,2013-04-18 15:33:00,
2013-04-18 09:42:00,24.0,6.0,-100.00,SW,230,4.0,6.0,46,-99.99,,,-99.99,,2013-04-18 15:42:00,
2013-04-18 09:52:00,25.0,6.0,-100.00,SW,225,8.0,12.0,45,-99.99,,,-99.99,,2013-04-18 15:52:00,
2013-04-18 10:03:00,25.0,7.0,-100.00,SW,225,9.0,11.0,44,-99.99,,,-99.99,,2013-04-18 16:03:00,
2013-04-18 10:13:00,25.0,8.0,-100.00,SW,230,9.0,11.0,46,-99.99,,,-99.99,,2013-04-18 16:13:00,
2013-04-18 10:22:00,26.0,9.0,-100.00,SW,230,10.0,13.0,48,-99.99,,,-99.99,,2013-04-18 16:22:00,
2013-04-18 10:33:00,27.0,10.0,-100.00,SW,230,6.0,11.0,47,-99.99,,,-99.99,,2013-04-18 16:33:00,
2013-04-18 10:42:00,28.0,9.0,-100.00,WSW,255,6.0,9.0,45,-99.99,,,-99.99,,2013-04-18 16:42:00,
2013-04-18 10:52:00,28.0,9.0,-100.00,WSW,245,12.0,20.0,45,-99.99,,,-99.99,,2013-04-18 16:52:00,
2013-04-18 11:02:00,28.0,9.0,-100.00,WSW,240,15.0,18.0,44,-99.99,,,-99.99,,2013-04-18 17:02:00,
2013-04-18 11:12:00,28.0,10.0,-100.00,SW,235,11.0,15.0,45,-99.99,,,-99.99,,2013-04-18 17:12:00,
2013-04-18 11:22:00,28.0,9.0,-100.00,WSW,240,16.0,20.0,43,-99.99,,,-99.99,,2013-04-18 17:22:00,
2013-04-18 11:33:00,29.0,10.0,-100.00,SW,230,16.0,19.0,43,-99.99,,,-99.99,,2013-04-18 17:33:00,
2013-04-18 11:42:00,29.0,8.0,-100.00,SW,230,16.0,24.0,41,-99.99,,,-99.99,,2013-04-18 17:42:00,
2013-04-18 11:52:00,29.0,10.0,-100.00,SW,230,12.0,22.0,43,-99.99,,,-99.99,,2013-04-18 17:52:00,
2013-04-18 12:02:00,29.0,10.0,-100.00,SW,225,19.0,23.0,44,-99.99,,,-99.99,,2013-04-18 18:02:00,
2013-04-18 12:12:00,29.0,10.0,-100.00,WSW,245,19.0,29.0,43,-99.99,,,-99.99,,2013-04-18 18:12:00,
2013-04-18 12:22:00,29.0,10.0,-100.00,SW,235,24.0,29.0,45,-99.99,,,-99.99,,2013-04-18 18:22:00,
2013-04-18 12:32:00,29.0,11.0,-100.00,SW,235,24.0,30.0,46,-99.99,,,-99.99,,2013-04-18 18:32:00,
2013-04-18 12:42:00,29.0,12.0,-100.00,WSW,240,21.0,30.0,47,-99.99,,,-99.99,,2013-04-18 18:42:00,
2013-04-18 12:52:00,28.0,11.0,-100.00,SW,235,25.0,32.0,46,-99.99,,,-99.99,,2013-04-18 18:52:00,
2013-04-18 13:02:00,29.0,11.0,-100.00,SW,235,24.0,31.0,46,-99.99,,,-99.99,,2013-04-18 19:02:00,
2013-04-18 13:12:00,29.0,10.0,-100.00,WSW,240,25.0,32.0,45,-99.99,,,-99.99,,2013-04-18 19:12:00,
2013-04-18 13:22:00,29.0,10.0,-100.00,WSW,245,24.0,31.0,44,-99.99,,,-99.99,,2013-04-18 19:22:00,
2013-04-18 13:32:00,30.0,11.0,-100.00,WSW,245,21.0,32.0,44,-99.99,,,-99.99,,2013-04-18 19:32:00,
2013-04-18 13:42:00,30.0,10.0,-100.00,WSW,240,21.0,31.0,43,-99.99,,,-99.99,,2013-04-18 19:42:00,
2013-04-18 13:52:00,30.0,11.0,-100.00,WSW,245,24.0,34.0,44,-99.99,,,-99.99,,2013-04-18 19:52:00,
2013-04-18 14:02:00,30.0,11.0,-100.00,SW,235,30.0,37.0,44,-99.99,,,-99.99,,2013-04-18 20:02:00,
2013-04-18 14:12:00,30.0,11.0,-100.00,WSW,245,26.0,34.0,44,-99.99,,,-99.99,,2013-04-18 20:12:00,
2013-04-18 14:22:00,30.0,11.0,-100.00,WSW,245,21.0,39.0,44,-99.99,,,-99.99,,2013-04-18 20:22:00,
2013-04-18 14:32:00,30.0,10.0,-100.00,WSW,245,28.0,35.0,43,-99.99,,,-99.99,,2013-04-18 20:32:00,
2013-04-18 14:42:00,30.0,11.0,-100.00,SW,235,27.0,34.0,43,-99.99,,,-99.99,,2013-04-18 20:42:00,
2013-04-18 14:52:00,30.0,11.0,-100.00,WSW,250,21.0,32.0,44,-99.99,,,-99.99,,2013-04-18 20:52:00,
2013-04-18 15:02:00,31.0,11.0,-100.00,WSW,255,22.0,30.0,43,-99.99,,,-99.99,,2013-04-18 21:02:00,
2013-04-18 15:12:00,31.0,11.0,-100.00,WSW,255,22.0,30.0,43,-99.99,,,-99.99,,2013-04-18 21:12:00,
2013-04-18 15:22:00,31.0,12.0,-100.00,West,260,27.0,35.0,43,-99.99,,,-99.99,,2013-04-18 21:22:00,
2013-04-18 15:32:00,32.0,11.0,-100.00,West,260,25.0,37.0,42,-99.99,,,-99.99,,2013-04-18 21:32:00,
2013-04-18 15:43:00,32.0,10.0,-100.00,WSW,255,30.0,37.0,40,-99.99,,,-99.99,,2013-04-18 21:43:00,
2013-04-18 15:52:00,32.0,11.0,-100.00,West,260,28.0,35.0,42,-99.99,,,-99.99,,2013-04-18 21:52:00,
2013-04-18 16:02:00,32.0,11.0,-100.00,WSW,250,29.0,37.0,42,-99.99,,,-99.99,,2013-04-18 22:02:00,
2013-04-18 16:13:00,32.0,12.0,-100.00,West,260,27.0,37.0,43,-99.99,,,-99.99,,2013-04-18 22:13:00,
2013-04-18 16:22:00,31.0,13.0,-100.00,West,260,24.0,33.0,45,-99.99,,,-99.99,,2013-04-18 22:22:00,
2013-04-18 16:32:00,32.0,13.0,-100.00,West,260,25.0,32.0,45,-99.99,,,-99.99,,2013-04-18 22:32:00,
2013-04-18 16:42:00,32.0,13.0,-100.00,West,260,22.0,31.0,45,-99.99,,,-99.99,,2013-04-18 22:42:00,
2013-04-18 16:52:00,32.0,15.0,-100.00,West,260,23.0,28.0,49,-99.99,,,-99.99,,2013-04-18 22:52:00,
2013-04-18 17:03:00,32.0,15.0,-100.00,WSW,255,21.0,30.0,48,-99.99,,,-99.99,,2013-04-18 23:03:00,
2013-04-18 17:11:00,32.0,16.0,-100.00,West,260,20.0,30.0,50,-99.99,,,-99.99,,2013-04-18 23:11:00,
2013-04-18 17:21:00,32.0,16.0,-100.00,West,265,21.0,29.0,51,-99.99,,,-99.99,,2013-04-18 23:21:00,
2013-04-18 17:32:00,31.0,16.0,-100.00,West,265,21.0,28.0,51,-99.99,,,-99.99,,2013-04-18 23:32:00,
2013-04-18 17:42:00,31.0,16.0,-100.00,West,270,22.0,29.0,52,-99.99,,,-99.99,,2013-04-18 23:42:00,
2013-04-18 17:52:00,31.0,15.0,-100.00,West,265,24.0,31.0,50,-99.99,,,-99.99,,2013-04-18 23:52:00,
2013-04-18 18:01:00,31.0,15.0,-100.00,West,265,21.0,29.0,51,-99.99,,,-99.99,,2013-04-19 00:01:00,
2013-04-18 18:12:00,31.0,15.0,-100.00,West,265,21.0,27.0,51,-99.99,,,-99.99,,2013-04-19 00:12:00,
2013-04-18 18:21:00,31.0,16.0,-100.00,West,280,19.0,27.0,52,-99.99,,,-99.99,,2013-04-19 00:21:00,
2013-04-18 18:32:00,31.0,15.0,-100.00,West,275,17.0,24.0,52,-99.99,,,-99.99,,2013-04-19 00:32:00,
2013-04-18 18:42:00,31.0,16.0,-100.00,West,280,19.0,25.0,53,-99.99,,,-99.99,,2013-04-19 00:42:00,
2013-04-18 18:51:00,30.0,15.0,-100.00,West,275,16.0,23.0,52,-99.99,,,-99.99,,2013-04-19 00:51:00,
2013-04-18 19:01:00,30.0,16.0,-100.00,West,270,15.0,20.0,54,-99.99,,,-99.99,,2013-04-19 01:01:00,
2013-04-18 19:11:00,30.0,16.0,-100.00,West,265,14.0,18.0,55,-99.99,,,-99.99,,2013-04-19 01:11:00,
2013-04-18 19:21:00,30.0,15.0,-100.00,West,275,11.0,16.0,54,-99.99,,,-99.99,,2013-04-19 01:21:00,
2013-04-18 19:31:00,29.0,16.0,-100.00,West,265,11.0,14.0,55,-99.99,,,-99.99,,2013-04-19 01:31:00,
2013-04-18 19:42:00,30.0,14.0,-100.00,WSW,245,12.0,18.0,50,-99.99,,,-99.99,,2013-04-19 01:42:00,
2013-04-18 19:52:00,29.0,15.0,-100.00,SW,220,8.0,14.0,54,-99.99,,,-99.99,,2013-04-19 01:52:00,
2013-04-18 20:01:00,30.0,14.0,-100.00,WSW,250,12.0,15.0,51,-99.99,,,-99.99,,2013-04-19 02:01:00,
2013-04-18 20:11:00,29.0,13.0,-100.00,WSW,245,9.0,12.0,50,-99.99,,,-99.99,,2013-04-19 02:11:00,
2013-04-18 20:21:00,29.0,13.0,-100.00,West,265,12.0,15.0,49,-99.99,,,-99.99,,2013-04-19 02:21:00,
2013-04-18 20:32:00,28.0,14.0,-100.00,West,265,11.0,15.0,54,-99.99,,,-99.99,,2013-04-19 02:32:00,
2013-04-18 20:42:00,28.0,13.0,-100.00,West,260,12.0,14.0,54,-99.99,,,-99.99,,2013-04-19 02:42:00,
2013-04-18 20:51:00,27.0,13.0,-100.00,WSW,255,11.0,12.0,55,-99.99,,,-99.99,,2013-04-19 02:51:00,
2013-04-18 21:01:00,27.0,14.0,-100.00,West,260,12.0,14.0,56,-99.99,,,-99.99,,2013-04-19 03:01:00,
2013-04-18 21:11:00,26.0,13.0,-100.00,West,260,11.0,14.0,57,-99.99,,,-99.99,,2013-04-19 03:11:00,
2013-04-18 21:21:00,26.0,13.0,-100.00,West,265,11.0,12.0,56,-99.99,,,-99.99,,2013-04-19 03:21:00,
2013-04-18 21:32:00,26.0,13.0,-100.00,West,270,11.0,12.0,58,-99.99,,,-99.99,,2013-04-19 03:32:00,
2013-04-18 21:43:00,26.0,13.0,-100.00,West,270,14.0,15.0,58,-99.99,,,-99.99,,2013-04-19 03:43:00,
2013-04-18 21:53:00,25.0,12.0,-100.00,South,180,8.0,14.0,55,-99.99,,,-99.99,,2013-04-19 03:53:00,
2013-04-18 22:03:00,25.0,13.0,-100.00,SW,225,6.0,11.0,58,-99.99,,,-99.99,,2013-04-19 04:03:00,
2013-04-18 22:13:00,26.0,12.0,-100.00,WSW,240,9.0,10.0,56,-99.99,,,-99.99,,2013-04-19 04:13:00,
2013-04-18 22:23:00,27.0,11.0,-100.00,WSW,240,9.0,17.0,50,-99.99,,,-99.99,,2013-04-19 04:23:00,
2013-04-18 22:33:00,27.0,10.0,-100.00,SW,230,9.0,16.0,48,-99.99,,,-99.99,,2013-04-19 04:33:00,
2013-04-18 22:43:00,26.0,10.0,-100.00,SSW,210,7.0,10.0,48,-99.99,,,-99.99,,2013-04-19 04:43:00,
2013-04-18 22:52:00,26.0,10.0,-100.00,WSW,240,9.0,11.0,51,-99.99,,,-99.99,,2013-04-19 04:52:00,
2013-04-18 23:03:00,25.0,10.0,-100.00,SSW,195,9.0,9.0,53,-99.99,,,-99.99,,2013-04-19 05:03:00,
2013-04-18 23:11:00,25.0,10.0,-100.00,SW,230,7.0,10.0,52,-99.99,,,-99.99,,2013-04-19 05:11:00,
2013-04-18 23:22:00,24.0,10.0,-100.00,South,175,7.0,8.0,54,-99.99,,,-99.99,,2013-04-19 05:22:00,
2013-04-18 23:32:00,24.0,10.0,-100.00,South,190,7.0,7.0,55,-99.99,,,-99.99,,2013-04-19 05:32:00,
2013-04-18 23:42:00,24.0,10.0,-100.00,South,170,6.0,9.0,55,-99.99,,,-99.99,,2013-04-19 05:42:00,
2013-04-18 23:52:00,24.0,10.0,-100.00,South,170,6.0,9.0,55,-99.99,,,-99.99,,2013-04-19 05:52:00,